Time,TemperatureF,DewpointF,PressureIn,WindDirection,WindDirectionDegrees,WindSpeedMPH,WindSpeedGustMPH,Humidity,HourlyPrecipIn,Conditions,Clouds,dailyrainin,SolarRadiationWatts/m^2,SoftwareType,DateUTC
2013-02-10 00:01:00,41.0,12.0,-100.00,North,-999,-999.0,-999.0,30,-99.99,,,0.00,0.000000,,2013-02-10 05:01:00,
2013-02-10 00:10:00,41.0,13.0,-100.00,North,-999,-999.0,-999.0,31,0.00,,,0.00,0.000000,,2013-02-10 05:10:00,
2013-02-10 00:32:00,41.0,13.0,-100.00,North,-999,-999.0,-999.0,31,0.00,,,0.00,0.000000,,2013-02-10 05:32:00,
2013-02-10 00:42:00,41.0,13.0,-100.00,North,-999,-999.0,-999.0,31,0.00,,,0.00,0.000000,,2013-02-10 05:42:00,
2013-02-10 00:52:00,41.0,13.0,-100.00,North,-999,-999.0,-999.0,31,0.00,,,0.00,0.000000,,2013-02-10 05:52:00,
2013-02-10 01:32:00,41.0,13.0,-100.00,North,-999,-999.0,-999.0,32,0.00,,,0.00,0.000000,,2013-02-10 06:32:00,
2013-02-10 02:10:00,38.0,12.0,-100.00,North,-999,-999.0,-999.0,34,-99.99,,,0.00,0.000000,,2013-02-10 07:10:00,
2013-02-10 02:42:00,38.0,12.0,-100.00,North,-999,-999.0,-999.0,34,-99.99,,,0.00,0.000000,,2013-02-10 07:42:00,
2013-02-10 02:52:00,38.0,12.0,-100.00,North,-999,-999.0,-999.0,34,-99.99,,,0.00,0.000000,,2013-02-10 07:52:00,
2013-02-10 03:01:00,38.0,12.0,-100.00,North,-999,-999.0,-999.0,34,-99.99,,,0.00,0.000000,,2013-02-10 08:01:00,
2013-02-10 03:10:00,37.0,12.0,-100.00,North,-999,-999.0,-999.0,35,0.00,,,0.00,0.000000,,2013-02-10 08:10:00,
2013-02-10 03:43:00,37.0,12.0,-100.00,North,-999,-999.0,-999.0,35,0.00,,,0.00,0.000000,,2013-02-10 08:43:00,
2013-02-10 03:52:00,37.0,12.0,-100.00,North,-999,-999.0,-999.0,35,0.00,,,0.00,0.000000,,2013-02-10 08:52:00,
2013-02-10 04:02:00,37.0,12.0,-100.00,North,-999,-999.0,-999.0,35,0.00,,,0.00,0.000000,,2013-02-10 09:02:00,
2013-02-10 04:10:00,38.0,13.0,-100.00,North,-999,-999.0,-999.0,35,0.00,,,0.00,0.000000,,2013-02-10 09:10:00,
2013-02-10 04:32:00,38.0,13.0,-100.00,North,-999,-999.0,-999.0,35,0.00,,,0.00,0.000000,,2013-02-10 09:32:00,
2013-02-10 04:42:00,38.0,13.0,-100.00,North,-999,-999.0,-999.0,35,0.00,,,0.00,0.000000,,2013-02-10 09:42:00,
2013-02-10 04:52:00,38.0,13.0,-100.00,North,-999,-999.0,-999.0,35,0.00,,,0.00,0.000000,,2013-02-10 09:52:00,
2013-02-10 05:01:00,38.0,13.0,-100.00,North,-999,-999.0,-999.0,35,0.00,,,0.00,0.000000,,2013-02-10 10:01:00,
2013-02-10 05:10:00,38.0,14.0,-100.00,North,-999,-999.0,-999.0,37,0.00,,,0.00,0.000000,,2013-02-10 10:10:00,
2013-02-10 05:42:00,38.0,14.0,-100.00,North,-999,-999.0,-999.0,37,0.00,,,0.00,0.000000,,2013-02-10 10:42:00,
2013-02-10 05:52:00,38.0,14.0,-100.00,North,-999,-999.0,-999.0,37,0.00,,,0.00,0.000000,,2013-02-10 10:52:00,
2013-02-10 06:01:00,38.0,14.0,-100.00,North,-999,-999.0,-999.0,37,0.00,,,0.00,0.000000,,2013-02-10 11:01:00,
2013-02-10 06:10:00,38.0,14.0,-100.00,North,-999,-999.0,-999.0,37,0.00,,,0.00,0.000000,,2013-02-10 11:10:00,
2013-02-10 06:32:00,38.0,14.0,-100.00,North,-999,-999.0,-999.0,37,0.00,,,0.00,0.000000,,2013-02-10 11:32:00,
2013-02-10 06:42:00,38.0,14.0,-100.00,North,-999,-999.0,-999.0,37,0.00,,,0.00,0.000000,,2013-02-10 11:42:00,
2013-02-10 06:52:00,38.0,14.0,-100.00,North,-999,-999.0,-999.0,37,0.00,,,0.00,0.000000,,2013-02-10 11:52:00,
2013-02-10 07:02:00,38.0,14.0,-100.00,North,-999,-999.0,-999.0,37,0.00,,,0.00,0.000000,,2013-02-10 12:02:00,
2013-02-10 10:10:00,43.0,15.0,-100.00,North,-999,-999.0,-999.0,32,-99.99,,,0.00,0.000000,,2013-02-10 15:10:00,
2013-02-10 10:32:00,43.0,15.0,-100.00,North,-999,-999.0,-999.0,32,-99.99,,,0.00,0.000000,,2013-02-10 15:32:00,
2013-02-10 10:42:00,43.0,15.0,-100.00,North,-999,-999.0,-999.0,32,-99.99,,,0.00,0.000000,,2013-02-10 15:42:00,
2013-02-10 10:52:00,43.0,15.0,-100.00,North,-999,-999.0,-999.0,32,-99.99,,,0.00,0.000000,,2013-02-10 15:52:00,
2013-02-10 11:02:00,43.0,15.0,-100.00,North,-999,-999.0,-999.0,32,-99.99,,,0.00,0.000000,,2013-02-10 16:02:00,
2013-02-10 11:10:00,47.0,17.0,-100.00,North,-999,-999.0,-999.0,30,0.00,,,0.00,0.000000,,2013-02-10 16:10:00,
2013-02-10 11:32:00,47.0,17.0,-100.00,North,-999,-999.0,-999.0,30,0.00,,,0.00,0.000000,,2013-02-10 16:32:00,
2013-02-10 11:42:00,47.0,17.0,-100.00,North,-999,-999.0,-999.0,30,0.00,,,0.00,0.000000,,2013-02-10 16:42:00,
2013-02-10 11:52:00,47.0,17.0,-100.00,North,-999,-999.0,-999.0,30,0.00,,,0.00,0.000000,,2013-02-10 16:52:00,
2013-02-10 12:02:00,47.0,17.0,-100.00,North,-999,-999.0,-999.0,30,0.00,,,0.00,0.000000,,2013-02-10 17:02:00,
2013-02-10 12:10:00,46.0,16.0,-100.00,North,-999,-999.0,-999.0,30,0.00,,,0.00,0.000000,,2013-02-10 17:10:00,
2013-02-10 12:32:00,46.0,16.0,-100.00,North,-999,-999.0,-999.0,30,0.00,,,0.00,0.000000,,2013-02-10 17:32:00,
2013-02-10 12:42:00,46.0,16.0,-100.00,North,-999,-999.0,-999.0,30,0.00,,,0.00,0.000000,,2013-02-10 17:42:00,
2013-02-10 12:53:00,46.0,16.0,-100.00,North,-999,-999.0,-999.0,30,0.00,,,0.00,0.000000,,2013-02-10 17:53:00,
2013-02-10 13:02:00,46.0,16.0,-100.00,North,-999,-999.0,-999.0,30,0.00,,,0.00,0.000000,,2013-02-10 18:02:00,
2013-02-10 13:10:00,50.0,17.0,-100.00,North,-999,-999.0,-999.0,27,0.00,,,0.00,0.000000,,2013-02-10 18:10:00,
2013-02-10 13:42:00,50.0,17.0,-100.00,North,-999,-999.0,-999.0,27,0.00,,,0.00,0.000000,,2013-02-10 18:42:00,
2013-02-10 13:52:00,50.0,17.0,-100.00,North,-999,-999.0,-999.0,27,0.00,,,0.00,0.000000,,2013-02-10 18:52:00,
2013-02-10 14:02:00,50.0,17.0,-100.00,North,-999,-999.0,-999.0,27,0.00,,,0.00,0.000000,,2013-02-10 19:02:00,
2013-02-10 14:10:00,51.0,20.0,-100.00,North,-999,-999.0,-999.0,29,0.00,,,0.00,0.000000,,2013-02-10 19:10:00,
2013-02-10 14:32:00,51.0,20.0,-100.00,North,-999,-999.0,-999.0,29,0.00,,,0.00,0.000000,,2013-02-10 19:32:00,
2013-02-10 14:43:00,51.0,20.0,-100.00,North,-999,-999.0,-999.0,29,0.00,,,0.00,0.000000,,2013-02-10 19:43:00,
2013-02-10 14:52:00,51.0,20.0,-100.00,North,-999,-999.0,-999.0,29,0.00,,,0.00,0.000000,,2013-02-10 19:52:00,
2013-02-10 15:02:00,51.0,20.0,-100.00,North,-999,-999.0,-999.0,29,0.00,,,0.00,0.000000,,2013-02-10 20:02:00,
2013-02-10 15:10:00,51.0,20.0,-100.00,North,-999,-999.0,-999.0,29,0.00,,,0.00,0.000000,,2013-02-10 20:10:00,
2013-02-10 15:42:00,51.0,20.0,-100.00,North,-999,-999.0,-999.0,29,0.00,,,0.00,0.000000,,2013-02-10 20:42:00,
2013-02-10 15:52:00,51.0,20.0,-100.00,North,-999,-999.0,-999.0,29,0.00,,,0.00,0.000000,,2013-02-10 20:52:00,
2013-02-10 16:02:00,51.0,20.0,-100.00,North,-999,-999.0,-999.0,29,0.00,,,0.00,0.000000,,2013-02-10 21:02:00,
2013-02-10 16:10:00,46.0,17.0,-100.00,North,-999,-999.0,-999.0,31,0.00,,,0.00,0.000000,,2013-02-10 21:10:00,
2013-02-10 16:32:00,46.0,17.0,-100.00,North,-999,-999.0,-999.0,31,0.00,,,0.00,0.000000,,2013-02-10 21:32:00,
2013-02-10 16:42:00,46.0,17.0,-100.00,North,-999,-999.0,-999.0,31,0.00,,,0.00,0.000000,,2013-02-10 21:42:00,
2013-02-10 16:52:00,46.0,17.0,-100.00,North,-999,-999.0,-999.0,31,0.00,,,0.00,0.000000,,2013-02-10 21:52:00,
2013-02-10 17:02:00,46.0,17.0,-100.00,North,-999,-999.0,-999.0,31,0.00,,,0.00,0.000000,,2013-02-10 22:02:00,
2013-02-10 17:10:00,44.0,18.0,-100.00,North,-999,-999.0,-999.0,35,0.00,,,0.00,0.000000,,2013-02-10 22:10:00,
2013-02-10 17:42:00,44.0,18.0,-100.00,North,-999,-999.0,-999.0,35,0.00,,,0.00,0.000000,,2013-02-10 22:42:00,
2013-02-10 17:53:00,44.0,18.0,-100.00,North,-999,-999.0,-999.0,35,0.00,,,0.00,0.000000,,2013-02-10 22:53:00,
2013-02-10 18:02:00,44.0,18.0,-100.00,North,-999,-999.0,-999.0,35,0.00,,,0.00,0.000000,,2013-02-10 23:02:00,
2013-02-10 18:10:00,43.0,18.0,-100.00,North,-999,-999.0,-999.0,36,0.00,,,0.00,0.000000,,2013-02-10 23:10:00,
2013-02-10 18:32:00,43.0,18.0,-100.00,North,-999,-999.0,-999.0,36,0.00,,,0.00,0.000000,,2013-02-10 23:32:00,
2013-02-10 18:42:00,43.0,18.0,-100.00,North,-999,-999.0,-999.0,36,0.00,,,0.00,0.000000,,2013-02-10 23:42:00,
2013-02-10 18:52:00,43.0,18.0,-100.00,North,-999,-999.0,-999.0,36,0.00,,,0.00,0.000000,,2013-02-10 23:52:00,
2013-02-10 19:02:00,43.0,18.0,-100.00,North,-999,-999.0,-999.0,36,0.00,,,0.00,0.000000,,2013-02-11 00:02:00,
2013-02-10 19:10:00,42.0,20.0,-100.00,North,-999,-999.0,-999.0,41,0.00,,,0.00,0.000000,,2013-02-11 00:10:00,
2013-02-10 19:42:00,42.0,20.0,-100.00,North,-999,-999.0,-999.0,41,0.00,,,0.00,0.000000,,2013-02-11 00:42:00,
2013-02-10 19:52:00,42.0,20.0,-100.00,North,-999,-999.0,-999.0,41,0.00,,,0.00,0.000000,,2013-02-11 00:52:00,
2013-02-10 20:01:00,42.0,20.0,-100.00,North,-999,-999.0,-999.0,41,0.00,,,0.00,0.000000,,2013-02-11 01:01:00,
2013-02-10 21:10:00,37.0,34.0,-100.00,North,-999,-999.0,-999.0,87,-99.99,,,0.05,0.000000,,2013-02-11 02:10:00,
2013-02-10 21:42:00,37.0,34.0,-100.00,North,-999,-999.0,-999.0,87,-99.99,,,0.05,0.000000,,2013-02-11 02:42:00,
2013-02-10 21:52:00,37.0,34.0,-100.00,North,-999,-999.0,-999.0,87,-99.99,,,0.05,0.000000,,2013-02-11 02:52:00,
2013-02-10 22:02:00,37.0,34.0,-100.00,North,-999,-999.0,-999.0,87,-99.99,,,0.05,0.000000,,2013-02-11 03:02:00,
2013-02-10 22:10:00,35.0,34.0,-100.00,North,-999,-999.0,-999.0,96,0.01,,,0.06,0.000000,,2013-02-11 03:10:00,
2013-02-10 22:32:00,35.0,34.0,-100.00,North,-999,-999.0,-999.0,96,0.01,,,0.06,0.000000,,2013-02-11 03:32:00,
2013-02-10 22:42:00,35.0,34.0,-100.00,North,-999,-999.0,-999.0,96,0.01,,,0.06,0.000000,,2013-02-11 03:42:00,
2013-02-10 22:52:00,35.0,34.0,-100.00,North,-999,-999.0,-999.0,96,0.01,,,0.06,0.000000,,2013-02-11 03:52:00,
2013-02-10 23:02:00,35.0,34.0,-100.00,North,-999,-999.0,-999.0,96,0.01,,,0.06,0.000000,,2013-02-11 04:02:00,
2013-02-10 23:10:00,37.0,35.0,-100.00,North,-999,-999.0,-999.0,93,0.00,,,0.06,0.000000,,2013-02-11 04:10:00,
2013-02-10 23:32:00,37.0,35.0,-100.00,North,-999,-999.0,-999.0,93,0.00,,,0.06,0.000000,,2013-02-11 04:32:00,
2013-02-10 23:42:00,37.0,35.0,-100.00,North,-999,-999.0,-999.0,93,0.00,,,0.06,0.000000,,2013-02-11 04:42:00,
2013-02-10 23:52:00,37.0,35.0,-100.00,North,-999,-999.0,-999.0,93,0.00,,,0.06,0.000000,,2013-02-11 04:52:00,